Waarnemingen

Advertentie
Mijn weer
Jaen, Spanje (8417): temperatuur & dauwpunt: 15.02.2018 14:00:00 - 21.02.2018 14:00:00 (CET)Jaen, Spanje (8417): windsnelheid: 15.02.2018 14:00:00 - 21.02.2018 14:00:00 (CET)Jaen, Spanje (8417): windrichting: 15.02.2018 14:00:00 - 21.02.2018 14:00:00 (CET)Jaen, Spanje (8417): luchtdruk: 15.02.2018 14:00:00 - 21.02.2018 14:00:00 (CET)Jaen, Spanje (8417): zicht: 15.02.2018 14:00:00 - 21.02.2018 14:00:00 (CET)Jaen, Spanje (8417): neerslag: 15.02.2018 14:00:00 - 21.02.2018 14:00:00 (CET)
Datum & Tijd tt [°C] td [°C] ff [km/u] ff [kn] dd ppp [hPa] vv [km] rr [mm]
21.02.2018 14:00:00 - - - - - - - -
21.02.2018 13:00:00 11,1 0,8 11 6 O 1009,6 20 -
21.02.2018 12:00:00 11,3 1,0 15 8 O 1010,5 20 0,0
21.02.2018 11:00:00 10,4 0,7 9 5 O 1011,1 20 0,0
21.02.2018 10:00:00 9,0 0,4 13 7 ZO 1011,5 20 -
21.02.2018 09:00:00 7,9 0,4 13 7 ZO 1012,3 20 0,0
21.02.2018 08:00:00 6,8 0,0 13 7 ZO 1012,6 20 0,0
21.02.2018 07:00:00 7,0 0,6 5 3 ZO 1012,7 20 -
21.02.2018 06:00:00 7,3 0,5 9 5 ZO 1012,6 20 0,0
21.02.2018 05:00:00 7,3 1,6 8 4 ZO 1013,3 20 0,0
21.02.2018 04:00:00 7,3 2,2 8 4 ZO 1013,7 19 -
21.02.2018 03:00:00 7,9 2,6 0 0 N 1014,4 20 0,0
21.02.2018 02:00:00 9,1 2,6 4 2 Z 1015,0 20 0,0
21.02.2018 01:00:00 9,9 3,4 4 2 WZW 1015,1 20 -
21.02.2018 00:00:00 11,5 3,8 4 2 NNO 1014,7 20 0,0
20.02.2018 23:00:00 12,2 4,9 5 3 NW 1014,5 20 0,0
20.02.2018 22:00:00 12,2 4,9 5 3 WZW 1014,6 20 -
20.02.2018 21:00:00 11,2 4,9 5 3 WZW 1014,9 20 0,0
20.02.2018 20:00:00 11,2 4,4 8 4 WZW 1015,2 19 0,0
20.02.2018 19:00:00 13,1 5,3 8 4 WZW 1014,6 20 -
20.02.2018 18:00:00 15,0 4,1 2 1 N 1014,1 20 0,0
20.02.2018 17:00:00 15,2 4,3 4 2 NO 1014,3 20 0,0
20.02.2018 16:00:00 16,1 4,8 8 4 N 1014,5 20 -
20.02.2018 15:00:00 15,4 4,7 9 5 NNO 1015,6 20 0,0
20.02.2018 14:00:00 14,7 4,7 9 5 O 1016,7 20 0,0
20.02.2018 13:00:00 14,2 5,8 5 3 O 1017,3 20 -
20.02.2018 12:00:00 13,4 5,3 5 3 NNO 1018,0 20 0,0
20.02.2018 11:00:00 12,2 4,9 9 5 OZO 1018,7 20 0,0
20.02.2018 10:00:00 11,5 4,2 11 6 ZO 1018,9 20 -
20.02.2018 09:00:00 9,9 4,1 4 2 ZO 1019,0 20 0,0
20.02.2018 08:00:00 7,0 3,1 4 2 ZZW 1019,1 20 0,0
20.02.2018 07:00:00 7,1 3,0 8 4 Z 1018,7 20 -
20.02.2018 06:00:00 7,2 2,9 5 3 Z 1018,8 20 0,0
20.02.2018 05:00:00 7,6 2,9 4 2 Z 1018,6 20 0,0
20.02.2018 04:00:00 7,5 2,8 5 3 ZZW 1018,5 20 -
20.02.2018 03:00:00 8,2 2,8 5 3 ZZW 1018,6 20 0,0
20.02.2018 02:00:00 8,5 2,7 2 1 ZW 1018,6 20 0,0
20.02.2018 01:00:00 8,8 3,0 5 3 WZW 1018,6 20 -
20.02.2018 00:00:00 10,0 3,3 5 3 WZW 1018,1 20 0,0
19.02.2018 23:00:00 10,4 3,2 5 3 Z 1018,1 20 0,0
19.02.2018 22:00:00 9,8 3,5 5 3 ZZW 1018,3 20 -
19.02.2018 21:00:00 9,7 3,4 4 2 ZW 1018,2 20 0,0
19.02.2018 20:00:00 9,9 3,4 8 4 WZW 1018,1 20 0,0
19.02.2018 19:00:00 10,9 3,9 4 2 ZZW 1017,3 20 -
19.02.2018 18:00:00 12,7 3,9 4 2 Z 1016,4 20 0,0
19.02.2018 17:00:00 13,8 3,0 8 4 NO 1016,4 20 0,0
19.02.2018 16:00:00 14,6 2,8 5 3 NNO 1016,3 20 -
19.02.2018 15:00:00 14,2 3,6 4 2 ZO 1016,7 20 0,0
19.02.2018 14:00:00 13,0 3,1 5 3 ONO 1017,8 20 0,0
19.02.2018 13:00:00 12,0 3,0 5 3 O 1018,7 20 -
19.02.2018 12:00:00 10,2 2,1 4 2 NO 1019,5 19 0,0
19.02.2018 11:00:00 8,7 3,1 4 2 NNO 1019,7 19 0,0
19.02.2018 10:00:00 7,4 3,3 2 1 ZO 1019,6 15 -
19.02.2018 09:00:00 5,5 1,6 2 1 ZZW 1019,8 19 0,0
19.02.2018 08:00:00 4,3 0,8 2 1 ZO 1019,9 20 0,0
19.02.2018 07:00:00 5,2 0,4 4 2 ZZW 1019,4 20 -
19.02.2018 06:00:00 5,6 0,9 4 2 ZW 1019,1 20 0,0
19.02.2018 05:00:00 5,8 1,1 5 3 W 1019,2 20 0,0
19.02.2018 04:00:00 6,3 0,6 4 2 W 1019,2 20 -
19.02.2018 03:00:00 6,7 0,6 4 2 Z 1019,4 20 0,0
19.02.2018 02:00:00 7,3 0,5 5 3 Z 1019,6 20 0,0
19.02.2018 01:00:00 7,8 1,6 2 1 ZZW 1020,3 20 -
19.02.2018 00:00:00 8,9 1,3 8 4 Z 1020,2 20 0,0
18.02.2018 23:00:00 9,2 0,1 5 3 ZW 1020,7 20 0,0
18.02.2018 22:00:00 10,3 1,9 2 1 NW 1020,6 20 -
18.02.2018 21:00:00 10,4 4,5 4 2 Z 1020,2 19 0,0
18.02.2018 20:00:00 11,2 6,1 4 2 ZZW 1019,7 20 0,0
18.02.2018 19:00:00 12,3 6,6 4 2 ZZW 1019,1 20 -
18.02.2018 18:00:00 13,6 7,6 4 2 ZW 1018,6 19 0,0
18.02.2018 17:00:00 14,0 7,3 4 2 Z 1018,6 19 0,0
18.02.2018 16:00:00 14,5 7,3 4 2 ONO 1018,8 19 -
18.02.2018 15:00:00 12,8 6,8 5 3 N 1019,8 19 0,0
18.02.2018 14:00:00 12,8 7,0 9 5 N 1020,3 17 0,0
18.02.2018 13:00:00 13,0 7,2 8 4 N 1020,9 16 -
18.02.2018 12:00:00 11,4 7,3 2 1 OZO 1021,5 14 0,0
18.02.2018 11:00:00 10,9 7,0 5 3 N 1022,2 14 0,0
18.02.2018 10:00:00 8,5 6,6 5 3 OZO 1022,7 13 -
18.02.2018 09:00:00 5,9 4,7 5 3 ONO 1023,0 8 0,0
18.02.2018 08:00:00 7,8 6,4 2 1 O 1022,0 9 0,0
18.02.2018 07:00:00 8,6 7,2 5 3 ZO 1022,0 8 -
18.02.2018 06:00:00 8,3 6,9 4 2 ZO 1022,3 8 0,0
18.02.2018 05:00:00 8,2 6,3 8 4 ZZO 1022,1 12 0,0
18.02.2018 04:00:00 7,2 5,7 5 3 Z 1022,8 13 -
18.02.2018 03:00:00 7,9 5,5 4 2 WZW 1023,4 17 0,0
18.02.2018 02:00:00 8,6 5,9 9 5 Z 1023,1 19 0,0
18.02.2018 01:00:00 8,8 5,7 4 2 WZW 1023,5 20 -
18.02.2018 00:00:00 9,3 6,2 4 2 Z 1023,4 20 0,0
17.02.2018 23:00:00 9,2 5,7 4 2 ZZO 1023,3 20 0,0
17.02.2018 22:00:00 9,5 5,7 4 2 W 1023,1 20 -
17.02.2018 21:00:00 10,6 5,6 2 1 Z 1022,7 20 0,0
17.02.2018 20:00:00 11,6 5,5 9 5 W 1022,4 20 0,0
17.02.2018 19:00:00 12,4 6,0 11 6 W 1021,9 20 -
17.02.2018 18:00:00 14,8 5,3 9 5 WNW 1020,9 20 0,0
17.02.2018 17:00:00 15,5 4,8 11 6 NW 1020,7 20 0,0
17.02.2018 16:00:00 16,0 6,1 11 6 NW 1020,6 20 -
17.02.2018 15:00:00 16,0 7,0 13 7 NNW 1020,8 20 0,0
17.02.2018 14:00:00 15,4 8,2 11 6 NW 1021,7 19 0,0
17.02.2018 13:00:00 14,8 8,9 9 5 NNW 1022,8 16 -
17.02.2018 12:00:00 14,2 8,8 5 3 N 1023,3 15 0,0
17.02.2018 11:00:00 12,3 7,8 5 3 N 1023,9 16 0,0
17.02.2018 10:00:00 10,4 7,1 4 2 N 1024,3 14 -
17.02.2018 09:00:00 8,7 7,0 4 2 OZO 1024,7 15 0,0
17.02.2018 08:00:00 6,8 5,6 4 2 Z 1024,9 12 0,0
17.02.2018 07:00:00 7,6 6,1 5 3 Z 1024,4 14 -
17.02.2018 06:00:00 8,2 6,2 2 1 NNO 1023,9 18 0,0
17.02.2018 05:00:00 8,9 6,2 4 2 Z 1023,3 19 0,0
17.02.2018 04:00:00 10,0 5,8 4 2 Z 1023,3 20 -
17.02.2018 03:00:00 10,5 5,9 2 1 NW 1023,5 20 0,0
17.02.2018 02:00:00 11,3 4,7 2 1 NNO 1023,5 20 0,0
17.02.2018 01:00:00 12,0 4,2 5 3 W 1023,7 20 -
17.02.2018 00:00:00 12,4 6,0 13 7 W 1023,6 20 0,0
16.02.2018 23:00:00 12,8 6,2 11 6 W 1023,3 20 0,0
16.02.2018 22:00:00 13,4 5,5 13 7 W 1023,0 20 -
16.02.2018 21:00:00 14,0 4,8 13 7 W 1022,5 20 0,0
16.02.2018 20:00:00 14,8 3,6 13 7 WZW 1021,9 20 0,0
16.02.2018 19:00:00 14,0 5,6 11 6 WZW 1021,8 20 -
16.02.2018 18:00:00 16,7 7,6 8 4 WNW 1020,5 20 0,0
16.02.2018 17:00:00 17,3 7,6 11 6 NW 1020,3 20 0,0
16.02.2018 16:00:00 18,0 8,5 9 5 NNW 1020,4 19 -
16.02.2018 15:00:00 17,9 9,0 8 4 N 1020,9 19 0,0
16.02.2018 14:00:00 16,5 8,9 8 4 N 1022,1 18 0,0
16.02.2018 13:00:00 14,9 8,4 8 4 N 1023,4 17 -
16.02.2018 12:00:00 14,2 7,7 4 2 NNO 1023,9 18 0,0
16.02.2018 11:00:00 12,5 7,4 4 2 NNO 1024,5 17 0,0
16.02.2018 10:00:00 11,2 7,1 5 3 NNW 1024,6 13 -
16.02.2018 09:00:00 9,1 6,7 2 1 WNW 1024,8 17 0,0
16.02.2018 08:00:00 7,4 6,0 2 1 ZW 1025,0 12 0,0
16.02.2018 07:00:00 7,5 6,1 2 1 ZZO 1025,1 13 -
16.02.2018 06:00:00 8,1 6,2 4 2 WZW 1025,4 14 0,0
16.02.2018 05:00:00 8,6 6,4 5 3 W 1025,1 15 0,0
16.02.2018 04:00:00 9,5 6,8 5 3 Z 1024,9 17 -
16.02.2018 03:00:00 10,0 6,7 5 3 Z 1025,0 19 0,0
16.02.2018 02:00:00 10,6 6,7 5 3 Z 1025,3 18 0,0
16.02.2018 01:00:00 10,9 7,0 9 5 Z 1025,6 20 -
16.02.2018 00:00:00 11,7 7,2 4 2 ZZW 1025,5 20 0,0
15.02.2018 23:00:00 12,1 7,0 9 5 Z 1025,1 20 0,0
15.02.2018 22:00:00 12,2 6,7 8 4 Z 1025,2 20 -
15.02.2018 21:00:00 11,7 6,6 15 8 Z 1025,3 19 0,0
15.02.2018 20:00:00 11,3 6,4 5 3 Z 1025,8 12 0,0
15.02.2018 19:00:00 11,9 7,0 8 4 ZW 1025,6 18 -
15.02.2018 18:00:00 13,9 7,2 4 2 W 1024,5 19 0,0
15.02.2018 17:00:00 14,8 6,9 2 1 NO 1024,0 19 0,0
15.02.2018 16:00:00 15,2 6,7 5 3 OZO 1023,9 20 -
15.02.2018 15:00:00 15,4 7,2 4 2 NNW 1024,5 20 0,0
15.02.2018 14:00:00 14,4 6,2 5 3 NO 1025,2 20 0,0

tt = temperatuur
td = dauwpunt
ff = windsnelheid
dd = windrichting
ppp = luchtdruk
vv = zicht
rr = neerslag

Weerstations in de omgeving